www.pogodaiklimat.ru
ПОГОДА в Нонгбуалампху
Время
(UTC), дата
15 23.05
18 23.05
21 23.05
00 24.05
03 24.05
06 24.05
09 24.05
12 24.05
15 24.05
18 24.05
21 24.05
00 25.05
03 25.05
06 25.05
09 25.05
12 25.05
15 25.05
18 25.05
21 25.05
00 26.05
03 26.05
06 26.05
09 26.05
12 26.05
15 26.05
18 26.05
21 26.05
00 27.05
03 27.05
06 27.05
09 27.05
12 27.05
15 27.05
18 27.05
21 27.05
00 28.05
03 28.05
06 28.05
09 28.05
12 28.05
15 28.05
18 28.05
21 28.05
00 29.05
03 29.05
06 29.05
09 29.05
12 29.05
15 29.05
18 29.05
21 29.05
00 30.05
03 30.05
06 30.05
09 30.05
12 30.05
Ветер
(напр.,м/с)
Видим. Явления Облачность Т
(С)
Тd
(С)
f
(%)
Тe
(С)
Тes
(С)
Комфортность P
(гПа)
Po
(гПа)
Тmin
(С)
Tmax
(С)
R
(мм)
R24
(мм)
S
(см)
В 5 10 км гроза, ливневой дождь 10/1 300 м
[Cb cap As op]
+27.5 +24.0 81 +38 +38 очень
душно
1007.0 981.3 0.8
ЮВ 4 9000 м слаб. дождь {гроза} 10/3 600 м
[Sc As op]
+25.4 +24.8 96 +36 +36 очень
душно
1008.0 982.1 29 29.6
ЮВ 4 9000 м слаб. дождь 10/3 600 м
[Sc diur, vesp As op]
+25.7 +25.4 98 +37 +37 очень
душно
1007.8 981.9 4
ЮВ 2 8000 м дымка {дождь} 10/3 600 м
[Sc diur, vesp As op]
+25.5 +24.8 96 +36 +36 очень
душно
1009.7 983.7 +24.7 33 33.2
штиль 0 9000 м дымка 10/3 600 м
[Sc diur, vesp Ac und]
+28.2 +25.6 86 +42 +46 опасность
перегрева
1009.5 983.8
СЗ 4 11 км 8/3 600 м
[Sc diur, vesp Ac As Ci]
+32.7 +26.0 68 +48 +55 опасность
перегрева
1006.8 981.5 26.3
ЮВ 4 13 км 5/3 600 м
[Cu med, cong Ac trans Ci]
+34.1 +25.6 61 +49 +52 опасность
перегрева
1003.8 978.7
штиль 0 9000 м дымка {дождь} 8/3 600 м
[Sc diur, vesp Ac und Cs]
+28.1 +23.1 74 +38 +38 очень
душно
1006.7 981.0 +34.7 0.0 26.3
В 2 9000 м дымка 8/3 600 м
[Sc diur, vesp Ac As Cs]
+27.1 +23.8 82 +37 +37 очень
душно
1009.1 983.3
В 2 9000 м дымка 8/0
[Ac As Cs]
+26.6 +24.4 88 +37 +37 очень
душно
1008.2 982.4 3.6
В 2 8000 м дымка 4/0
[Cs]
+26.3 +24.7 91 +37 +37 очень
душно
1008.4 982.5
В 2 9000 м дымка 3/0
[Ac trans Ci]
+26.6 +24.9 90 +38 +40 очень
душно
1010.0 984.1 +25.6 0.0
ЮЗ 3 10 км 8/3 600 м
[Sc diur, vesp Ac As Ci]
+31.7 +25.5 70 +46 +52 опасность
перегрева
1009.8 984.4
З 2 12 км 8/4 600 м
[Sc diur, vesp Ac As Cs]
+34.5 +25.2 59 +49 +57 опасность
перегрева
1007.3 982.1 0.0
СВ 4 10 км гроза, ливневой дождь 10/4 300 м
[Cb cap As op]
+24.4 +24.2 99 +34 +34 очень
душно
1006.8 980.8 18
ЮВ 5 9000 м слаб. дождь {гроза} 10/3 600 м
[Sc As op]
+25.7 +25.1 96 +37 +37 очень
душно
1008.0 982.1 +36.2 2 20.4
В 2 9000 м дымка {дождь} 8/1 600 м
[Sc diur, vesp Ac As Cs]
+26.1 +25.2 95 +38 +38 очень
душно
1009.7 983.8 0.3
ЮВ 4 8000 м дымка {дождь} 8/0
[Ac As Cs]
+26.0 +25.3 96 +38 +38 очень
душно
1008.7 982.8 21 20.7
штиль 0 8000 м дымка 6/0
[Cs]
+25.4 +25.1 98 +36 +36 очень
душно
1008.6 982.7
В 2 8000 м дымка 4/0
[Cs]
+26.7 +25.0 90 +38 +40 очень
душно
1009.8 984.0 +25.2 20.7
штиль 0 9000 м дымка 6/6 600 м
[Sc]
+30.3 +24.9 73 +43 +52 опасность
перегрева
1009.3 983.7
З 2 9000 м мгла 6/6 1000 м
[Sc]
+34.0 +24.0 56 +46 +54 опасность
перегрева
1007.3 982.1 20.9
СВ 2 11 км 3/3 1000 м
[Sc]
+35.5 +25.3 56 +50 +55 опасность
перегрева
1004.3 979.3
ЮВ 3 11 км 3/0
[Ci fib]
+32.1 +24.2 63 +44 +44 опасность
перегрева
1005.3 980.0 +35.7 0.5
штиль 0 10 км 1/0
[Ci fib]
+30.0 +24.3 72 +42 +42 опасность
перегрева
1007.7 982.2
штиль 0 10 км ясно +28.5 +23.4 74 +39 +39 очень
душно
1006.8 981.2
штиль 0 10 км 3/0
[Ci fib]
+26.2 +23.9 87 +36 +36 очень
душно
1006.6 980.8
штиль 0 9000 м дымка 5/0
[Ac und]
+27.0 +25.6 92 +40 +42 очень
душно
1008.2 982.4 +26.1
ЮЗ 2 10 км 4/1 600 м
[Sc diur, vesp Ac trans Ci]
+33.1 +24.6 61 +46 +58 опасность
перегрева
1008.4 983.2
В 3 12 км 6/3 600 м
[Sc diur, vesp Ac As Cs]
+35.1 +24.8 55 +48 +58 опасность
перегрева
1006.0 980.9
ЮВ 5 13 км 6/3 600 м
[Sc diur, vesp Ac As Ci]
+35.7 +23.7 50 +47 +49 опасность
перегрева
1003.0 978.1
СЗ 2 11 км гроза без осадков 8/3 300 м
[Cb cap Ac und Cs]
+32.3 +24.6 64 +45 +45 опасность
перегрева
1005.7 980.4 +37.5
штиль 0 9000 м дымка {гроза} 8/3 600 м
[Sc Ac As Cs]
+29.5 +23.9 72 +41 +41 опасность
перегрева
1007.3 981.7
штиль 0 9000 м дымка {гроза} 5/0
[Ac As Cs]
+28.6 +25.3 82 +42 +42 опасность
перегрева
1007.7 982.1
штиль 0 8000 м дымка ясно +26.9 +24.9 89 +39 +39 очень
душно
1006.8 981.1
штиль 0 9000 м дымка 8/3 600 м
[Sc diur, vesp Ac As Cs]
+27.0 +24.4 86 +38 +39 очень
душно
1008.8 983.0 +26.2
В 3 11 км 6/0
[Cs]
+32.5 +21.4 52 +40 +52 опасность
солнечного
удара
1006.0 980.8
С 4 9000 м гроза, ливневой дождь 10/3 600 м
[Cb cap Ac cuf Ci ing]
+27.4 +22.4 74 +36 +41 очень
душно
1007.1 981.3 1 1.0
ЮВ 3 10 км {гроза} 10/4 600 м
[Sc Ac As Cs]
+26.2 +25.2 94 +38 +40 очень
душно
1004.2 978.4 1
штиль 0 10 км {гроза} 10/0
[Ac As Cs]
+26.6 +24.6 89 +38 +38 очень
душно
1005.7 979.9 +34.7 2 2.2
ЮЗ 3 7000 м гроза, ливневой дождь 10/5 300 м
[Cb cap As op]
+25.5 +24.0 91 +35 +35 очень
душно
1008.9 983.0 11
В 3 6000 м слаб. дождь {гроза} 10/8 300 м
[Frnb As op]
+25.4 +23.9 91 +35 +35 очень
душно
1008.9 983.0 3 16.5
штиль 0 8000 м слаб. дождь 10/8 300 м
[Frnb As op]
+25.3 +24.0 93 +35 +35 очень
душно
1015.4 989.3 4
С 2 10 км {дождь} 10/3 600 м
[Sc Ac As Cs]
+24.0 +23.4 96 +32 +33 очень
душно
1009.9 983.8 +24.0 0.0 20.0
ЮВ 2 11 км 9/4 600 м
[Sc diur, vesp Ac As Ci]
+27.5 +24.5 84 +39 +45 очень
душно
1010.0 984.2
В 2 13 км 8/3 600 м
[Sc diur, vesp Ac As Ci]
+30.7 +24.9 71 +44 +53 опасность
перегрева
1007.6 982.2 19.0
В 4 13 км 5/3 600 м
[Sc diur, vesp Ac As Ci]
+32.7 +24.8 63 +46 +49 опасность
перегрева
1005.0 979.7
штиль 0 12 км 9/4 600 м
[Sc Ac und Cs]
+30.1 +25.9 78 +45 +45 опасность
перегрева
1006.4 980.9 +33.2 17.8
З 2 10 км {гроза} 8/3 600 м
[Sc Ac As Cs]
+26.5 +25.1 92 +38 +38 очень
душно
1009.8 983.9 0.6
ЮВ 3 9000 м дымка {гроза} 6/0
[Ac As Cs]
+25.3 +24.4 95 +35 +35 очень
душно
1009.7 983.7 0.6 4.1
штиль 0 8000 м дымка 6/0
[Cs]
+25.1 +24.8 98 +35 +35 очень
душно
1009.5 983.5
В 3 10 км 10/4 600 м
[Sc diur, vesp Ac und Cs]
+25.1 +24.2 95 +35 +35 очень
душно
1011.7 985.7 +24.5 0.6
В 3 10 км 6/6 600 м
[Cu Sc]
+28.0 +24.4 81 +39 +45 очень
душно
1011.0 985.3
ЮВ 3 11 км 6/6 600 м
[Cu Sc]
+32.5 +24.7 64 +46 +53 опасность
перегрева
1008.5 983.1 0.6
В 6 11 км гроза без осадков 8/8 600 м
[Cb cap Ci ing]
+30.0 +25.0 75 +43 +44 опасность
перегрева
1006.1 980.6
штиль 0 10 км {гроза, дождь} 8/5 600 м
[Cb cap Ac As Cs]
+25.5 +25.3 99 +37 +37 очень
душно
1007.4 981.5 +33.5 19 20.0
Местоположение метеостанции Нонгбуалампху (Таиланд): широта 17.23 долгота 102.43 высота над уровнем моря 228 м.
В архиве по умолчанию представлена погода в Нонгбуалампху за последнюю неделю. Архивные данные за месяц целиком и за предыдущие месяцы, начиная с января 2011 года, Вы можете получить, выбрав интересующий диапазон дат из раскрывающегося списка и нажав кнопку "Найти!".
*Определитесь, кто Вы:
Внимание! Время в таблицах - всемирное. Для получения местного времени необходимо прибавить поправку, которая равна 7 ч.
Смотрите также архив погоды в соседних городах и на ближайших метеорологических станциях:
Партнеры нашего сайта:      
Пояснения к столбцам:
  • Ветер - указаны скорость ветра в м/с - средняя за 10 мин, порывы в срок и между сроками (в фигурных скобках) и направление, откуда дует ветер: С - северный,
  • СВ - северо-восточный, В - восточный, ЮВ - юго-восточный, Ю - южный, ЮЗ - юго-западный, З - западный, СЗ - северо-западный.
  • Видимость - горизонтальная дальность видимости в метрах или километрах. При видимости от 1 до 10 км при отсутствии осадков обычно наблюдается дымка, при ухудшении видимости до 1 км и менее - туман. В сухую погоду видимость может ухудшаться дымом, пылью или мглою.
  • Явления - указаны атмосферные явления, наблюдавшиеся в срок или в последний час перед сроком; фигурными скобками обозначены явления, наблюдавшиеся между сроками (за 1-3 часа до срока); квадратными скобками обозначены град или гололедные отложения с указанием их диаметра в мм.
  • Облачность - указаны через наклонную черту общая и нижняя облачность в баллах и высота нижней границы облаков в метрах; квадратными скобками обозначены формы облаков: Ci - перистые, Cs - перисто-слоистые, Cc - перисто-кучевые, Ac - высококучевые, As - высокослоистые, Sc - слоисто-кучевые, Ns - слоисто-дождевые, Cu - кучевые, Cb - кучево-дождевые. Подробнее классификацию облаков см. в Атласе облаков (PDF).
  • T - Температура воздуха - температура, измеренная на высоте 2 м над землей.
  • Td - Температура точки росы - температура, при понижении до которой содержащийся в воздухе водяной пар достигнет насыщения.
  • f - Относительная влажность воздуха - влажноcть воздуха, измеренная на высоте 2 м над землей.
  • Te - Эффективная температура - температура, которую ощущает одетый по сезону человек в тени. Характеристика душности погоды. При расчете учитывается влияние влажности воздуха и скорости ветра на теплоощущения человека.
  • Tes - Эффективная температура на солнце - температура, которую ощущает человек, с поправкой на солнечный нагрев. Характеристика знойности погоды. Зависит от высоты солнца над горизонтом, облачности и скорости ветра. Ночью, в пасмурную погоду, а также при ветре 12 м/с и более поправка равна нулю.
  • P - Атмосферное давление - приведенное к уровню моря атмосферное давление.
  • Po - Атмосферное давление - измеренное на уровне метеостанции атмосферное давление.
  • Tmin - Минимальная температура - минимум температуры воздуха на высоте 2 м над землей.
  • Tmax - Максимальная температура - максимум температуры воздуха на высоте 2 м над землей.
  • R - Количество осадков - Количество выпавших осадков за период времени, мм. При наведении курсора мыши на число - период времени, за который выпало указанное количество осадков.
  • R24 - Количество осадков - Количество выпавших осадков за 24 часа, мм.
  • S - Снежный покров - Высота снежного покрова, см. При наведении курсора мыши на число - состояние снежного покрова и степень покрытия местности в баллах.